User: anonymous   Login
Location: Unspecified
(0.0000°N, 0.0000°E)
Time: 07:52:45
(UTC+00:00)
Language:

Optus B1 - Orbit

View from above orbital plane
View from above orbital plane
View from above satellite
View from above satellite

Ground track
Ground track

The orbit data is extracted from the following two-line orbital elements,

1 22087U 92054A   15241.21559977 -.00000020  00000-0  00000+0 0  9999
2 22087 007.6665 051.4662 0009671 060.3643 330.9054 00.99205486 95562
Epoch (UTC): 29 August 2015 05:10:27
Eccentricity: 0.0009671
inclination: 7.6665°
perigee height: 36047 km
apogee height: 36129 km
right ascension of ascending node: 51.4662°
argument of perigee: 60.3643°
revolutions per day: 0.99205486
mean anomaly at epoch: 330.9054°
orbit number at epoch: 9556

The dashed part of the orbit path shows where the satellite is in the earth's shadow,  

DLR